Weather in Charomskoe

Russia / Vologda Oblast     59°20′32″N   38°37′04″E
temp.,
°C
wind,
m/s
gust,
m/s
humid.,
%
clouds,
%
prec.,
mm/h
press.,
hPa
HPBL,
m
11 may, tue
tue1100:00+6s23595 0.0 102929
03:00+5s236126 0.0 102929
06:00+7ssw23689 0.0 103080
09:00+12s345642 0.0 1030377
12:00+16ssw235099 0.0 1029729
15:00+18ssw225097 0.0 1029956
18:00+18s13609 0.0 1028812
21:00+12s11801 0.0 102910
12 may, wed
wed1200:00+10sse22820 0.0 102912
03:00+9sse22794 0.0 102911
06:00+10se22761 0.0 103049
09:00+15se22610 0.0 1029364
12:00+19ese22550 0.0 1028765
15:00+22e23510 0.0 10261174
18:00+21e36670 0.0 1024244
21:00+15e36825 0.0 102489
13 may, thu
thu1300:00+14ese399042 0.7 1024160
03:00+13ese379236 0.7 1023137
06:00+14se398928 0.0 1023311
09:00+17se487543 0.0 1023672
12:00+21se585921 0.1 10211462
15:00+21se696212 0.9 10191400
18:00+19se6106636 0.3 1017617
21:00+14s2493100 0.8 1016139
14 may, fri
fri1400:00+13sse269799 0.6 1016307
03:00+11ssw379880 0.9 1017292
06:00+10ssw369778 0.0 1018202
09:00+14ssw46816 0.0 1018534
12:00+18ssw586546 0.0 10171261
15:00+18ssw696784 0.1 10171305
18:00+17s487960 0.3 1016692
21:00+14se349077 0.6 101680
15 may, sat
sat1500:00+13se349223 0.3 101560
03:00+12ese359385 0.3 101475
06:00+14se379177 0.0 1013228
09:00+17sse578798 0.8 1012667
12:00+19se348278 0.2 1011683
15:00+22sse4665100 0.3 10101185
18:00+20ese5978100 2.1 1007308
21:00+16se31092100 7.1 1006324